DELTA 1 DEB, 10709

Orbit data source: Space-Track

DELTA 1 DEB, 10709 is space debris in SSO originally from a launch on Thu, 29 Jul 1976 UTC launched from the Air Force Western Test Range (AFWTR). Debris objects in space refer to the collection of defunct objects orbiting the Earth. Examples of debris include non-operational satellites, rocket bodies, and fragments generated from explosions, collisions, or faulty payload assembly.

Loading next visibility...
Identifier
10709, 1976-077AE
Orbit
SSO
Country
Flag of USUS
Related business
Manufacturer
Unknown
Mission
Spacecraft
Bus & Motor
Unknown
Mass
Unknown
Launch date (UTC)
1976-07-29 (50 years ago)
Launch vehicle
Unknown
Launch site
Air Force Western Test Range (AFWTR)
Object type
Payload
Rocket body
Debris
Shape & HBR
Unknown shape, 0.1 m
Radar Cross Section
Medium (>0.1 m² and <1 m²)

Expand to show TLE details & history
Last TLE update: 21 hours ago

TLE from 21 hours ago
0 DELTA 1 DEB
1 10709U 76077AE  26034.11074318  .00000145  00000-0  13032-2 0  9995
2 10709 101.9121 103.6195 0019095  74.1194 315.5813 12.46586387249325
Epoch: 2026-02-03T02:39Z
TLE epoch observation values (Epoch: 2026-02-03T02:39:28.210Z)
Latitude
28.89523°
Longitude
-76.19755°
Altitude
1,471.383 km
Speed
7.135 km/s
True Right ascension
06h 27m 51s
True Declination
28° 45' 48"
Sunlit
Object was in full shadow at epoch
Visualization orbit readout
Latitude
Unknown
Longitude
Unknown
Altitude
Unknown
Speed
Unknown
Apparent Right ascension
Unknown
Apparent Declination
Unknown
Sunlit
N/A
Visualization observer readout
Local Sidereal Time
01:45:35
Azimuth
Unknown
Elevation
Unknown
Doppler factor
Unknown
Orbital elements
Apogee altitude
1,491.365 km
Perigee altitude
1,461.368 km
Semi-major axis
7,854.504 km
Eccentricity
0.00191
Inclination
101.9121°
RAAN
103.6195°
Arg. of periapsis
74.1194°
True anomaly
315.42789°
Mean anomaly
315.5813°
Eccentric anomaly
315.50462°
Mean motion
3.11792 °/min
Orbital period
115.46 mins
BSTAR
0.0013032
Loading maneuver chart data...
Computing Atmospheric mass density...
Loading historical data...
Loading historical data...
Loading historical data...
Loading historical data...
Loading historical data...
Loading historical data...
Loading historical data...

Documentation

Showing up to 5 results
|